Date String (YYYY-MM-DD hh:mm:ss) UTC,Instrument flags,Ambient pressure (hPa),Sample flow (lpm),Bypass flow (lpm),Sample temperature (°C),Ambient temperature (°C),ASC tube jacket temperature (°C),LED temperature (°C),Box temperature (°C),Sample RH (%),Span deviation,Mass concentration (μg/m³),Mass concentration (μg/m³),Mass concentration (μg/m³)
DateTimeUTC,F1_M11,P_M11,Q1_M11,Q2_M11,T1_M11,T2_M11,T3_M11,T4_M11,T5_M11,U1_M11,ZSPAN_M11,X0_M11,X2_M11,X1_M11
2021-08-21 14:00:00,,0830.1,5.00,0.00,30.5,29.7,00.0,39.6,32.3,22.0,0002.8,0013.78,0008.99,0008.55
2021-08-21 14:01:00,,0830.1,5.00,0.00,30.5,29.7,00.0,39.6,32.3,21.6,0002.9,0013.83,0008.97,0008.50
2021-08-21 14:02:00,,0830.1,5.00,0.00,30.5,29.7,00.0,39.6,32.3,21.3,0002.8,0013.76,0008.90,0008.44
2021-08-21 14:03:00,,0830.1,5.01,0.00,30.5,29.7,00.0,39.7,32.3,21.0,0002.7,0013.69,0008.83,0008.37
2021-08-21 14:04:00,,0830.1,4.99,0.00,30.6,29.7,00.0,39.7,32.3,21.1,0002.5,0013.58,0008.73,0008.28
2021-08-21 14:05:00,,0830.1,5.01,0.00,30.6,29.7,00.0,39.7,32.3,21.3,0002.4,0013.09,0008.58,0008.17
2021-08-21 14:06:00,,0830.1,5.01,0.00,30.6,29.7,00.0,39.7,32.4,21.0,0002.4,0012.82,0008.45,0008.06
2021-08-21 14:07:00,,0830.1,5.00,0.00,30.6,29.8,00.0,39.7,32.4,20.6,0002.5,0012.60,0008.29,0007.92
2021-08-21 14:08:00,,0830.1,5.00,0.00,30.6,29.8,00.0,39.7,32.4,20.9,0002.4,0012.01,0008.12,0007.79
2021-08-21 14:09:00,,0830.1,5.00,0.00,30.6,29.8,00.0,39.7,32.4,21.1,0002.4,0011.60,0008.09,0007.75
2021-08-21 14:10:00,,0830.1,4.99,0.00,30.6,29.8,00.0,39.7,32.4,21.1,0002.4,0011.25,0008.03,0007.71
2021-08-21 14:11:00,,0830.1,5.01,0.00,30.7,29.8,00.0,39.8,32.5,21.0,0002.4,0011.30,0008.01,0007.68
2021-08-21 14:12:00,,0830.1,5.00,0.00,30.7,29.8,00.0,39.8,32.5,21.0,0002.4,0011.29,0008.00,0007.69
2021-08-21 14:13:00,,0830.1,4.99,0.00,30.7,29.9,00.0,39.8,32.5,20.7,0002.4,0011.29,0008.00,0007.69
2021-08-21 14:14:00,,0830.1,5.00,0.00,30.7,29.9,00.0,39.8,32.5,21.1,0002.5,0011.47,0008.07,0007.72
2021-08-21 14:15:00,,0830.1,5.00,0.00,30.7,29.9,00.0,39.8,32.5,21.8,0002.5,0011.69,0008.14,0007.78
2021-08-21 14:16:00,,0830.1,5.00,0.00,30.7,29.9,00.0,39.8,32.5,21.3,0002.4,0012.05,0008.25,0007.85
2021-08-21 14:17:00,,0830.1,5.00,0.00,30.7,29.9,00.0,39.8,32.5,21.4,0002.5,0012.39,0008.35,0007.93
2021-08-21 14:18:00,,0830.1,5.00,0.00,30.7,29.9,00.0,39.8,32.5,21.1,0002.3,0012.60,0008.47,0008.02
2021-08-21 14:19:00,,0830.1,5.00,0.00,30.8,29.9,00.0,39.9,32.5,21.0,0002.1,0012.72,0008.56,0008.09
2021-08-21 14:20:00,,0830.1,5.00,0.00,30.8,29.9,00.0,39.9,32.5,20.9,0002.1,0012.88,0008.54,0008.11
2021-08-21 14:21:00,,0830.1,5.01,0.00,30.8,30.0,00.0,39.9,32.5,21.1,0002.2,0013.39,0008.57,0008.14
2021-08-21 14:22:00,,0830.1,5.00,0.00,30.8,30.0,00.0,39.9,32.6,21.2,0002.0,0013.45,0008.63,0008.18
2021-08-21 14:23:00,,0830.1,5.00,0.00,30.8,30.0,00.0,39.9,32.6,21.2,0001.9,0013.99,0008.67,0008.20
2021-08-21 14:24:00,,0830.0,4.99,0.00,30.8,30.0,00.0,39.9,32.6,21.2,0002.0,0014.11,0008.70,0008.25
2021-08-21 14:25:00,,0830.1,5.01,0.00,30.8,30.0,00.0,39.9,32.6,21.3,0002.1,0014.19,0008.72,0008.27
2021-08-21 14:26:00,,0830.1,4.99,0.00,30.8,29.1,00.0,39.9,32.3,21.7,0002.3,0014.80,0008.74,0008.27
2021-08-21 14:27:00,,0830.1,4.99,0.00,30.6,27.0,00.0,39.9,31.8,21.6,0002.4,0014.93,0008.74,0008.27
2021-08-21 14:28:00,,0830.0,5.02,0.00,30.5,26.4,00.0,39.8,31.6,21.8,0002.3,0015.01,0008.73,0008.27
2021-08-21 14:29:00,,0830.0,5.01,0.00,30.4,26.7,00.0,39.8,31.7,22.3,0002.3,0014.96,0008.72,0008.29
2021-08-21 14:30:00,,0829.9,4.99,0.00,30.3,27.2,00.0,39.7,31.7,21.9,0002.2,0015.29,0008.80,0008.33
2021-08-21 14:31:00,,0829.9,5.00,0.00,30.2,27.6,00.0,39.6,31.7,22.3,0002.1,0015.31,0008.86,0008.34
2021-08-21 14:32:00,,0829.8,4.99,0.00,30.2,27.9,00.0,39.6,31.8,22.5,0002.2,0014.86,0008.86,0008.32
2021-08-21 14:33:00,,0829.9,5.00,0.00,30.2,28.2,00.0,39.6,31.8,22.3,0002.1,0014.97,0008.85,0008.30
2021-08-21 14:34:00,,0829.8,5.01,0.00,30.2,28.4,00.0,39.5,31.9,22.2,0002.2,0014.57,0008.88,0008.30
2021-08-21 14:35:00,,0829.8,5.00,0.00,30.2,28.6,00.0,39.5,31.9,22.2,0002.1,0014.52,0008.85,0008.27
2021-08-21 14:36:00,,0829.8,5.01,0.00,30.2,28.8,00.0,39.5,31.9,22.0,0002.0,0014.67,0008.80,0008.26
2021-08-21 14:37:00,,0829.8,5.01,0.00,30.2,28.9,00.0,39.5,31.9,22.0,0002.0,0014.04,0008.79,0008.26
2021-08-21 14:38:00,,0829.8,4.99,0.00,30.2,29.0,00.0,39.5,32.0,22.4,0002.0,0014.17,0008.79,0008.26
2021-08-21 14:39:00,,0829.8,5.01,0.00,30.3,29.1,00.0,39.5,32.0,22.2,0002.0,0014.72,0008.81,0008.28
2021-08-21 14:40:00,,0829.8,5.00,0.00,30.3,29.2,00.0,39.5,32.0,22.2,0001.9,0015.43,0008.82,0008.28
2021-08-21 14:41:00,,0829.8,5.00,0.00,30.3,29.2,00.0,39.5,32.1,22.1,0001.8,0015.23,0008.76,0008.25
2021-08-21 14:42:00,,0829.8,5.00,0.00,30.3,29.3,00.0,39.5,32.1,22.4,0001.8,0014.98,0008.73,0008.24
2021-08-21 14:43:00,,0829.8,4.99,0.00,30.3,29.3,00.0,39.5,32.1,22.6,0001.8,0015.18,0008.71,0008.23
2021-08-21 14:44:00,,0829.8,5.00,0.00,30.3,29.4,00.0,39.5,32.1,22.9,0002.0,0015.25,0008.67,0008.21
2021-08-21 14:45:00,,0829.8,5.01,0.00,30.4,29.4,00.0,39.5,32.1,22.6,0001.9,0015.03,0008.61,0008.19
2021-08-21 14:46:00,,0829.8,4.99,0.00,30.4,29.4,00.0,39.5,32.1,22.9,0001.8,0015.05,0008.64,0008.21
2021-08-21 14:47:00,,0829.8,5.01,0.00,30.4,29.5,00.0,39.5,32.2,22.7,0001.8,0014.65,0008.61,0008.20
2021-08-21 14:48:00,,0829.8,5.01,0.00,30.4,29.5,00.0,39.5,32.2,23.2,0001.4,0014.46,0008.57,0008.18
2021-08-21 14:49:00,,0829.7,4.99,0.00,30.4,29.5,00.0,39.5,32.2,23.3,0001.3,0013.96,0008.53,0008.16
2021-08-21 14:50:00,,0829.8,5.00,0.00,30.5,29.6,00.0,39.6,32.2,23.2,0001.4,0013.01,0008.50,0008.13
2021-08-21 14:51:00,,0829.7,5.01,0.00,30.5,29.6,00.0,39.6,32.3,22.5,0001.7,0012.35,0008.49,0008.15
2021-08-21 14:52:00,,0829.7,4.99,0.00,30.5,29.6,00.0,39.6,32.3,22.3,0002.0,0012.63,0008.51,0008.16
2021-08-21 14:53:00,,0829.7,4.99,0.00,30.5,29.6,00.0,39.6,32.3,22.2,0002.1,0012.86,0008.51,0008.17
2021-08-21 14:54:00,,0829.8,5.01,0.00,30.5,29.7,00.0,39.6,32.3,22.5,0001.9,0012.34,0008.50,0008.19
2021-08-21 14:55:00,,0829.7,4.99,0.00,30.5,29.7,00.0,39.6,32.4,22.4,0001.6,0012.06,0008.50,0008.21
2021-08-21 14:56:00,,0829.8,5.01,0.00,30.6,29.7,00.0,39.6,32.4,22.3,0001.4,0012.08,0008.53,0008.23
2021-08-21 14:57:00,,0829.8,4.99,0.00,30.6,29.7,00.0,39.7,32.4,22.6,0001.4,0012.05,0008.52,0008.22
2021-08-21 14:58:00,,0829.7,5.00,0.00,30.6,29.7,00.0,39.7,32.4,23.1,0001.3,0012.08,0008.55,0008.24
2021-08-21 14:59:00,,0829.6,5.01,0.00,30.6,29.8,00.0,39.7,32.4,22.8,0001.3,0012.20,0008.61,0008.27
